Regional Weather Roundup
Issued by NWS

Home | Current Version | Previous Version | Graphics & Text | Print | Product List | Glossary On
Versions: 1 2 3 4 5 6 7 8 9 10 11 12 13 14 15 16 17 18 19 20 21 22 23 24 25 26 27 28 29 30 31 32 33 34 35 36 37 38 39 40 41 42 43 44 45 46 47 48 49 50
000
ASUS43 KTOP 291208
RWRKS

WEATHER ROUNDUP FOR KANSAS
NATIONAL WEATHER SERVICE GOODLAND KS
700 AM CDT SUN MAR 29 2015

NOTE:  "FAIR" INDICATES FEW OR NO CLOUDS BELOW 12,000 FEET WITH NO
SIGNIFICANT WEATHER AND/OR OBSTRUCTIONS TO VISIBILITY.

KSZ001>006-013>018-027>032-041>047-291300-
NORTHWEST KANSAS

CITY           SKY/WX    TMP DP  RH WIND       PRES   REMARKS
GOODLAND       CLEAR     49  32  52 N16       30.06R
6HR MIN TEMP:  49; 6HR MAX TEMP:  67;

HAYS           CLEAR     54  39  58 NW15      29.93R
HILL CITY      PTCLDY    54  33  45 N12       29.99R
6HR MIN TEMP:  51; 6HR MAX TEMP:  63;

$$

KSZ061>065-074>080-084>089-291300-
SOUTHWEST KANSAS

CITY           SKY/WX    TMP DP  RH WIND       PRES   REMARKS
DODGE CITY     CLEAR     52  37  56 W14       29.91R
6HR MIN TEMP:  52; 6HR MAX TEMP:  58;

ELKHART          N/A     55  28  35 NW10        N/A
GARDEN CITY    CLEAR     45  34  65 NW17      29.96R
6HR MIN TEMP:  42; 6HR MAX TEMP:  56;

GREAT BEND     PTCLDY    48  41  76 S8        29.89F
LIBERAL        CLEAR     48  28  46 W10       29.95R
PRATT          MOCLDY    50  43  76 NW8       29.95R
$$

KSZ066>073-081>083-090>101-291300-
SOUTHEAST KANSAS

CITY           SKY/WX    TMP DP  RH WIND       PRES   REMARKS
CHANUTE        CLEAR     42  38  85 S10       29.94R
6HR MIN TEMP:  40; 6HR MAX TEMP:  42;

COFFEYVILLE    CLEAR     42  36  79 S14       29.95S
6HR MIN TEMP:  42; 6HR MAX TEMP:  47;

HUTCHINSON     MOCLDY    50  43  77 S13G20    29.92R
6HR MIN TEMP:  49; 6HR MAX TEMP:  54;

MEDICINE LODGE   N/A     43  41  93 E3        29.89R
NEWTON         PTCLDY    48  39  71 NW12G29   29.98R
PARSONS        FAIR      42  37  82 S9        29.95F
6HR MIN TEMP:  42; 6HR MAX TEMP:  47;

WICHITA INTL   MOCLDY    47  41  80 S17       29.88R
6HR MIN TEMP:  47; 6HR MAX TEMP:  54;

WICHITA JABRA  PTCLDY    47  41  80 S18G25    29.86F
6HR MIN TEMP:  46; 6HR MAX TEMP:  53;

WICHITA MCCONL PTCLDY    47  42  83 S16       29.87S
WINFIELD       CLEAR     46  41  82 S14       29.91R
6HR MIN TEMP:  46; 6HR MAX TEMP:  53;

$$

KSZ007>012-019>026-033>040-048>060-102>105-291300-
NORTHEAST KANSAS

CITY           SKY/WX    TMP DP  RH WIND       PRES   REMARKS
CONCORDIA      MOCLDY    46  40  79 CALM      29.89R
6HR MIN TEMP:  46; 6HR MAX TEMP:  49;

EMPORIA        PTCLDY    43  39  86 S15       29.88R
6HR MIN TEMP:  41; 6HR MAX TEMP:  43;

LAWRENCE       CLOUDY    42  35  76 SE6       29.96R
6HR MIN TEMP:  38; 6HR MAX TEMP:  42;

MANHATTAN      CLOUDY    47  42  83 S3        29.91S
6HR MIN TEMP:  44; 6HR MAX TEMP:  49;

MARYSVILLE     MOCLDY    43  37  81 S6        29.90F
OLATHE IND     MOCLDY    40  34  79 SE12      29.95R WCI  33
6HR MIN TEMP:  37; 6HR MAX TEMP:  40;

OLATHE EXE     MOCLDY    39  34  82 SE9       29.95R
6HR MIN TEMP:  36; 6HR MAX TEMP:  39;

SALINA         CLOUDY    53  42  66 S6        29.91F
6HR MIN TEMP:  50; 6HR MAX TEMP:  56;

TOPEKA BILLARD CLOUDY    44  37  76 S5        29.96R
6HR MIN TEMP:  40; 6HR MAX TEMP:  44;

TOPEKA FORBES  CLOUDY    44  37  76 S5        29.95R
6HR MIN TEMP:  41; 6HR MAX TEMP:  44;

$$


USA.gov is the U.S. government's official web portal to all federal, state and local government web resources and services.